When you browse on this site, cookies collect data to enhance your experience and personalize the content and advertising you see.
Visit our Privacy Policy to learn more. By continuing to use the site, you agree to this use of cookies and data.
  • In Hungary
  • List of Countries
  • For 7 days
  • Water Temperature
  • Satellite Maps
  • Weather Map
  • News
  • Weather Widgets
  • user-avatar
    Login

    Hourly Weather Exeter

    Today, 16 February, Saturday

    Time Temperature Precipitation Wind Pressure Humidity
    00:00 +7°C° 0 mm 4 mps 759 mmHg 95%
    01:00 +8°C° 0 mm 4 mps 758 mmHg 95%
    02:00 +10°C° 0 mm 4 mps 758 mmHg 95%
    03:00 +11°C° 0 mm 4 mps 758 mmHg 95%
    04:00 +10°C° 0 mm 4 mps 758 mmHg 96%
    05:00 +10°C° 0 mm 4 mps 758 mmHg 96%
    06:00 +8°C° 0 mm 4 mps 758 mmHg 96%
    07:00 +10°C° 0 mm 4 mps 758 mmHg 95%
    08:00 +10°C° 0 mm 4 mps 758 mmHg 94%
    09:00 +10°C° 0 mm 4 mps 758 mmHg 93%
    10:00 +10°C° 0 mm 5 mps 758 mmHg 90%
    11:00 +11°C° 0 mm 6 mps 758 mmHg 87%
    12:00 +13°C° 0 mm 6 mps 758 mmHg 84%
    13:00 +11°C° 0 mm 6 mps 758 mmHg 86%
    14:00 +11°C° 0 mm 6 mps 757 mmHg 88%
    15:00 +11°C° 0 mm 6 mps 757 mmHg 90%
    16:00 +10°C° 0 mm 6 mps 757 mmHg 91%
    17:00 +10°C° 0 mm 6 mps 756 mmHg 91%
    18:00 +10°C° 0 mm 6 mps 756 mmHg 92%
    19:00 +10°C° 0 mm 6 mps 756 mmHg 93%
    20:00 +10°C° 0 mm 6 mps 755 mmHg 93%
    21:00 +10°C° 0 mm 6 mps 755 mmHg 94%
    22:00 +9°C° 0 mm 6 mps 755 mmHg 92%
    23:00 +9°C° 0 mm 6 mps 754 mmHg 91%

    Tomorrow, 17 February, Sunday

    Time Temperature Precipitation Wind Pressure Humidity
    00:00 +8°C° 0 mm 6 mps 754 mmHg 90%
    01:00 +8°C° 0 mm 6 mps 753 mmHg 90%
    02:00 +8°C° 0 mm 6 mps 752 mmHg 89%
    03:00 +7°C° 0 mm 6 mps 752 mmHg 89%
    04:00 +7°C° 0 mm 6 mps 751 mmHg 89%
    05:00 +7°C° 0 mm 6 mps 751 mmHg 89%
    06:00 +8°C° 0 mm 6 mps 751 mmHg 89%
    07:00 +8°C° 0 mm 7 mps 751 mmHg 89%
    08:00 +9°C° 0 mm 7 mps 751 mmHg 89%
    09:00 +9°C° 0 mm 7 mps 751 mmHg 89%
    10:00 +9°C° 0.2 mm 6 mps 751 mmHg 89%
    11:00 +9°C° 0.2 mm 6 mps 751 mmHg 89%
    12:00 +10°C° 0.2 mm 6 mps 752 mmHg 88%
    13:00 +10°C° 0 mm 6 mps 751 mmHg 84%
    14:00 +10°C° 0 mm 6 mps 751 mmHg 80%
    15:00 +10°C° 0 mm 7 mps 751 mmHg 75%
    16:00 +9°C° 0 mm 6 mps 752 mmHg 78%
    17:00 +8°C° 0 mm 6 mps 752 mmHg 81%
    18:00 +7°C° 0 mm 5 mps 752 mmHg 84%
    19:00 +7°C° 0 mm 5 mps 752 mmHg 85%
    20:00 +7°C° 0 mm 5 mps 752 mmHg 86%
    21:00 +7°C° 0 mm 5 mps 752 mmHg 87%
    22:00 +7°C° 0 mm 5 mps 752 mmHg 88%
    23:00 +6°C° 0 mm 5 mps 753 mmHg 89%

    Day after tomorrow, 18 February, Monday

    Time Temperature Precipitation Wind Pressure Humidity
    00:00 +6°C° 0 mm 5 mps 753 mmHg 90%
    01:00 +6°C° 0 mm 5 mps 752 mmHg 91%
    02:00 +6°C° 0 mm 5 mps 752 mmHg 91%
    03:00 +6°C° 0 mm 4 mps 752 mmHg 91%
    04:00 +6°C° 0 mm 4 mps 752 mmHg 91%
    05:00 +5°C° 0 mm 4 mps 752 mmHg 90%
    06:00 +5°C° 0 mm 4 mps 751 mmHg 90%
    07:00 +6°C° 0 mm 4 mps 752 mmHg 88%
    08:00 +6°C° 0 mm 5 mps 752 mmHg 85%
    09:00 +7°C° 0 mm 5 mps 752 mmHg 83%
    10:00 +7°C° 0.1 mm 5 mps 752 mmHg 80%
    11:00 +8°C° 0.1 mm 6 mps 752 mmHg 76%
    12:00 +9°C° 0.1 mm 7 mps 753 mmHg 73%
    13:00 +9°C° 0.3 mm 6 mps 753 mmHg 73%
    14:00 +9°C° 0.3 mm 6 mps 752 mmHg 74%
    15:00 +8°C° 0.3 mm 5 mps 752 mmHg 74%
    16:00 +7°C° 0 mm 5 mps 753 mmHg 78%
    17:00 +6°C° 0 mm 4 mps 753 mmHg 82%
    18:00 +4°C° 0 mm 3 mps 753 mmHg 86%
    19:00 +4°C° 0 mm 3 mps 753 mmHg 86%
    20:00 +3°C° 0 mm 3 mps 754 mmHg 87%
    21:00 +3°C° 0 mm 4 mps 754 mmHg 87%
    22:00 +3°C° 0 mm 4 mps 754 mmHg 87%
    23:00 +3°C° 0 mm 4 mps 754 mmHg 88%

    19 February, Tuesday

    Time Temperature Precipitation Wind Pressure Humidity
    00:00 +3°C° 0 mm 4 mps 755 mmHg 88%
    01:00 +3°C° 0 mm 4 mps 755 mmHg 88%
    02:00 +3°C° 0 mm 4 mps 755 mmHg 88%
    03:00 +3°C° 0 mm 3 mps 755 mmHg 89%
    04:00 +3°C° 0 mm 3 mps 755 mmHg 89%
    05:00 +3°C° 0 mm 3 mps 755 mmHg 89%
    06:00 +3°C° 0 mm 3 mps 754 mmHg 89%
    07:00 +4°C° 0 mm 4 mps 755 mmHg 87%
    08:00 +5°C° 0 mm 4 mps 755 mmHg 84%
    09:00 +6°C° 0 mm 4 mps 755 mmHg 82%
    10:00 +6°C° 0.1 mm 5 mps 755 mmHg 80%
    11:00 +7°C° 0.1 mm 6 mps 755 mmHg 79%
    12:00 +6°C° 0.1 mm 7 mps 755 mmHg 78%
    13:00 +8°C° 0.1 mm 7 mps 755 mmHg 79%
    14:00 +7°C° 0.1 mm 8 mps 754 mmHg 80%
    15:00 +7°C° 0.1 mm 8 mps 754 mmHg 80%
    16:00 +7°C° 0.2 mm 8 mps 754 mmHg 83%
    17:00 +6°C° 0.2 mm 8 mps 754 mmHg 85%
    18:00 +6°C° 0.2 mm 7 mps 753 mmHg 87%
    19:00 +6°C° 0.3 mm 7 mps 753 mmHg 88%
    20:00 +6°C° 0.3 mm 7 mps 753 mmHg 89%
    21:00 +6°C° 0.3 mm 8 mps 753 mmHg 90%
    22:00 +6°C° 0.2 mm 7 mps 753 mmHg 90%
    23:00 +8°C° 0.2 mm 7 mps 753 mmHg 90%

    20 February, Wednesday

    Time Temperature Precipitation Wind Pressure Humidity
    00:00 +8°C° 0.2 mm 7 mps 753 mmHg 90%
    01:00 +6°C° 0.1 mm 7 mps 753 mmHg 90%
    02:00 +7°C° 0.1 mm 6 mps 753 mmHg 91%
    03:00 +7°C° 0.1 mm 6 mps 753 mmHg 91%
    04:00 +7°C° 0.1 mm 6 mps 753 mmHg 90%
    05:00 +7°C° 0.1 mm 6 mps 753 mmHg 90%
    06:00 +8°C° 0.1 mm 7 mps 753 mmHg 89%
    07:00 +8°C° 0.1 mm 7 mps 753 mmHg 89%
    08:00 +8°C° 0.1 mm 7 mps 753 mmHg 89%
    09:00 +8°C° 0.1 mm 7 mps 753 mmHg 89%
    10:00 +7°C° 0.1 mm 8 mps 753 mmHg 89%
    11:00 +9°C° 0.1 mm 8 mps 754 mmHg 88%
    12:00 +9°C° 0.1 mm 8 mps 754 mmHg 87%
    13:00 +9°C° 0.1 mm 8 mps 754 mmHg 89%
    14:00 +9°C° 0.1 mm 8 mps 754 mmHg 90%
    15:00 +9°C° 0.1 mm 7 mps 754 mmHg 91%
    16:00 +9°C° 0.1 mm 7 mps 754 mmHg 92%
    17:00 +9°C° 0.1 mm 6 mps 754 mmHg 93%
    18:00 +9°C° 0.1 mm 6 mps 754 mmHg 93%
    19:00 +9°C° 0.1 mm 6 mps 755 mmHg 93%
    20:00 +9°C° 0.1 mm 7 mps 755 mmHg 93%
    21:00 +9°C° 0.1 mm 7 mps 755 mmHg 93%
    22:00 +9°C° 0 mm 7 mps 755 mmHg 93%
    23:00 +9°C° 0 mm 6 mps 755 mmHg 93%

    21 February, Thursday

    Time Temperature Precipitation Wind Pressure Humidity
    00:00 +9°C° 0 mm 6 mps 755 mmHg 94%
    01:00 +9°C° 0 mm 6 mps 756 mmHg 94%
    02:00 +9°C° 0 mm 6 mps 756 mmHg 95%
    03:00 +9°C° 0 mm 5 mps 756 mmHg 95%
    04:00 +9°C° 0 mm 5 mps 756 mmHg 95%
    05:00 +9°C° 0 mm 5 mps 757 mmHg 94%
    06:00 +9°C° 0 mm 5 mps 757 mmHg 93%
    07:00 +9°C° 0 mm 5 mps 757 mmHg 93%
    08:00 +9°C° 0 mm 5 mps 757 mmHg 92%
    09:00 +9°C° 0 mm 5 mps 758 mmHg 92%
    10:00 +10°C° 0 mm 5 mps 758 mmHg 86%
    11:00 +11°C° 0 mm 6 mps 758 mmHg 81%
    12:00 +12°C° 0 mm 7 mps 758 mmHg 75%
    13:00 +12°C° 0 mm 7 mps 758 mmHg 74%
    14:00 +12°C° 0 mm 7 mps 758 mmHg 73%
    15:00 +12°C° 0 mm 7 mps 758 mmHg 73%
    16:00 +11°C° 0 mm 6 mps 759 mmHg 78%
    17:00 +10°C° 0 mm 4 mps 759 mmHg 84%
    18:00 +9°C° 0 mm 3 mps 759 mmHg 89%
    19:00 +9°C° 0 mm 3 mps 759 mmHg 90%
    20:00 +9°C° 0 mm 3 mps 760 mmHg 90%
    21:00 +8°C° 0 mm 4 mps 760 mmHg 91%
    22:00 +9°C° 0 mm 3 mps 760 mmHg 91%
    23:00 +9°C° 0 mm 3 mps 761 mmHg 91%
    Show more